TimeMST,TemperatureF,Dew PointF,Humidity,Sea Level PressureIn,VisibilityMPH,Wind Direction,Wind SpeedMPH,Gust SpeedMPH,PrecipitationIn,Events,Conditions,WindDirDegrees,DateUTC
12:53 AM,32.0,26.1,79,29.92,10.0,NNW,3.5,-,N/A,,Clear,340,2013-02-08 07:53:00
1:53 AM,30.0,25.0,82,29.93,10.0,North,4.6,-,N/A,,Clear,360,2013-02-08 08:53:00
2:53 AM,30.0,24.1,79,29.92,10.0,Calm,Calm,-,N/A,,Clear,0,2013-02-08 09:53:00
3:53 AM,27.0,24.1,89,29.93,10.0,NNW,3.5,-,N/A,,Clear,330,2013-02-08 10:53:00
4:53 AM,26.1,23.0,88,29.94,10.0,WNW,4.6,-,N/A,,Clear,290,2013-02-08 11:53:00
5:53 AM,26.1,21.9,84,29.94,10.0,Calm,Calm,-,N/A,,Clear,0,2013-02-08 12:53:00
6:53 AM,25.0,21.9,88,29.95,10.0,WNW,4.6,-,N/A,,Clear,300,2013-02-08 13:53:00
7:53 AM,25.0,21.9,88,29.97,10.0,Calm,Calm,-,N/A,,Clear,0,2013-02-08 14:53:00
8:53 AM,28.9,26.1,89,29.98,10.0,Calm,Calm,-,N/A,,Clear,0,2013-02-08 15:53:00
9:53 AM,34.0,28.9,82,29.97,10.0,South,3.5,-,N/A,,Clear,190,2013-02-08 16:53:00
10:53 AM,37.0,28.9,73,29.96,10.0,Calm,Calm,-,N/A,,Clear,0,2013-02-08 17:53:00
11:53 AM,41.0,28.0,60,29.95,10.0,West,6.9,-,N/A,,Clear,280,2013-02-08 18:53:00
12:53 PM,43.0,28.9,58,29.93,10.0,WNW,5.8,-,N/A,,Clear,290,2013-02-08 19:53:00
1:53 PM,45.0,28.9,53,29.91,10.0,NNW,5.8,-,N/A,,Clear,330,2013-02-08 20:53:00
2:53 PM,45.0,28.0,52,29.90,10.0,North,6.9,-,N/A,,Clear,360,2013-02-08 21:53:00
3:53 PM,44.1,28.0,53,29.91,10.0,North,8.1,-,N/A,,Clear,10,2013-02-08 22:53:00
4:53 PM,41.0,28.0,60,29.92,10.0,North,4.6,-,N/A,,Clear,360,2013-02-08 23:53:00
5:53 PM,36.0,26.1,67,29.95,10.0,North,5.8,-,N/A,,Clear,10,2013-02-09 00:53:00
6:53 PM,32.0,26.1,79,29.97,10.0,NW,6.9,-,N/A,,Clear,310,2013-02-09 01:53:00
7:53 PM,32.0,26.1,79,29.97,10.0,NNW,6.9,-,N/A,,Clear,340,2013-02-09 02:53:00
8:53 PM,32.0,26.1,79,29.96,10.0,NNW,4.6,-,N/A,,Clear,340,2013-02-09 03:53:00
9:53 PM,32.0,25.0,75,29.95,10.0,Calm,Calm,-,N/A,,Clear,0,2013-02-09 04:53:00
10:53 PM,30.0,25.0,82,29.94,10.0,WNW,5.8,-,N/A,,Clear,300,2013-02-09 05:53:00
11:53 PM,28.9,25.0,85,29.95,10.0,West,5.8,-,N/A,,Clear,280,2013-02-09 06:53:00